Regional Weather Roundup
Issued by NWS Jackson, KY

Home | Current Version | Previous Version | Graphics & Text | Print | Product List | Glossary On
Versions: 1 2 3 4 5 6 7 8 9 10 11 12 13 14 15 16 17 18 19 20 21 22 23 24 25 26 27 28 29 30 31 32 33 34 35 36 37 38 39 40 41 42 43 44 45 46 47 48 49 50
000
ASUS43 KJKL 181810
RWRJKL

EAST KENTUCKY HOURLY WEATHER ROUNDUP
NATIONAL WEATHER SERVICE JACKSON KY
100 PM EST WED JAN 18 2017

NOTE: "FAIR" INDICATES FEW OR NO CLOUDS BELOW 12,000 FEET WITH
NO SIGNIFICANT WEATHER AND/OR OBSTRUCTIONS TO VISIBILITY.

* THESE REPORTS ARE NOT UNDER NWS QUALITY CONTROL AND MAY NOT
  REPORT WEATHER SUCH AS PRECIPITATION AND FOG.

KYZ079-080-083-085-087-088-110-112-115-119-120-181900
...EASTERN KENTUCKY...

CITY           SKY/WX    TMP DP  RH WIND       PRES   REMARKS
JACKSON        CLOUDY    43  37  79 NW3       30.18F
6HR MIN TEMP:  40; 6HR MAX TEMP:  43; 6HR PCP: TRACE;

LONDON         CLOUDY    45  34  65 SW6       30.20F
6HR MIN TEMP:  42; 6HR MAX TEMP:  46;

SOMERSET*      CLOUDY    45  34  65 W5        30.22F
MONTICELLO*    CLOUDY    48  37  65 W8        30.23F
6HR MIN TEMP:  42; 6HR MAX TEMP:  49; 6HR PCP: TRACE;

WILLIAMSBURG*  MOCLDY    46  37  71 CALM      30.20F
MIDDLESBORO*   MOSUNNY   51  39  62 SW3       30.18F
6HR MIN TEMP:  47; 6HR MAX TEMP:  51;

HARLAN APT*    PTCLDY    50  36  57 W3        30.17F
PIKE CO APT*   CLOUDY    43  38  83 SW5       30.16F
BIG SANDY APT* CLOUDY    44  39  83 W5        30.17F
6HR MIN TEMP:  41; 6HR MAX TEMP:  44;

MOREHEAD APT*  CLOUDY    45  36  70 NW6       30.20F
ASHLAND*       CLOUDY    45  37  76 NW7       30.17F
$$

KYZ035-036-041-042-044-050-067-078-099-181900
...CENTRAL KENTUCKY...

CITY           SKY/WX    TMP DP  RH WIND       PRES   REMARKS
MT STERLING*   CLOUDY    43  36  75 NW8       30.21F
FLEMING/MASON* CLOUDY    41  35  79 W10       30.20F
DANVILLE*      CLOUDY    45  36  70 CALM      30.22S
LEXINGTON      CLOUDY    43  36  76 W7        30.20F
6HR MIN TEMP:  41; 6HR MAX TEMP:  43;

FRANKFORT      CLOUDY    42  35  76 W6        30.20F
6HR MIN TEMP:  41; 6HR MAX TEMP:  43;

LOUISVILLE     CLOUDY    44  35  70 NW7       30.22F
6HR MIN TEMP:  42; 6HR MAX TEMP:  44;

LEBANON*       CLOUDY    45  36  70 W3        30.22F
GLASGOW*       CLOUDY    47  37  68 CALM      30.21F
BOWLING GREEN  CLOUDY    47  38  71 CALM      30.23F
6HR MIN TEMP:  45; 6HR MAX TEMP:  47;

$$

KYZ091>093-OHZ055-061-077-WVZ005-015-034-035-042-181900
...SOUTHERN OHIO/WEST VIRGINIA...

CITY           SKY/WX    TMP DP  RH WIND       PRES   REMARKS
COVINGTON      CLOUDY    40  36  86 W10       30.18F WCI  33
COLUMBUS       CLOUDY    42  35  76 W12       30.14F
DAYTON         CLOUDY    37  34  89 W9        30.16F WCI  30
WILMINGTON     CLOUDY    38  35  89 W10       30.16F WCI  31
HUNTINGTON     CLOUDY    44  37  76 W7        30.17F
CHARLESTON     CLOUDY    43  40  89 VRB5      30.15F
PINEVILLE*     CLOUDY    45  36  70 MISG      30.18F
BECKLEY        CLOUDY    40  35  83 NW7       30.10F
BLUEFIELD      CLOUDY    39  35  86 NW13      30.10F WCI  31
LOGAN CO APT*  CLOUDY    43  37  81 CALM      30.14F
$$

VAZ002-007-008-TNZ017-027-036-066-071-181900
...SOUTHWEST VIRGINIA/EAST TENNESSEE...

CITY           SKY/WX    TMP DP  RH WIND       PRES   REMARKS
WISE*          PTSUNNY   48  37  66 N8        30.14F
JONESVILLE*      N/A    N/A N/A N/A SW6       30.17F
ABINGDON*      PTSUNNY   55  41  58 W9        30.10F
BRISTOL        MOSUNNY   57  39  51 W12       30.12F
MORRISTOWN*    CLEAR     55  43  62 NW8       30.15F
SEVIERVILLE*   PTCLDY    55  45  67 NW5       30.15F
KNOXVILLE      PTSUNNY   57  44  62 CALM      30.15F
LAFOLLETTE*    CLEAR     54  41  62 CALM      30.20F
OAK RIDGE      SUNNY     58  41  53 S3        30.17F
CROSSVILLE     CLOUDY    49  40  71 VRB5      30.18F
NASHVILLE      CLOUDY    48  39  71 E3        30.21F
$$

...KEY TO REMARKS...
VSB - VISIBILITY IN MILES
WCI - WIND CHILL INDEX
HX  - HEAT INDEX

$$



USA.gov is the U.S. government's official web portal to all federal, state and local government web resources and services.